{"data":{"norad_id":59427,"epoch":"2026-09-21T19:18:55.115712Z","epoch_age_seconds":52399,"freshness":"FRESH","line1":"1 59427U 24065G   26264.80480458  .00001202  00000+0  46719-4 0  9996","line2":"2 59427  53.1607  87.3387 0001223  93.1558 266.9585 15.34392133139004","mean_motion":15.34392133,"eccentricity":0.0001223,"inclination_deg":53.1607,"raan_deg":87.3387,"arg_perigee_deg":93.1558,"mean_anomaly_deg":266.9585,"bstar":4.6719e-5,"rev_number":13900,"period_min":93.848239249282,"perigee_km":461.88998506785,"apogee_km":463.56326030996,"semimajor_km":6840.8636226889,"source":"CELESTRAK","updated_at":"2026-09-22T09:00:48.939677Z"}}